This is the latest recevied weather packets stored in our database for station/object KF4UQS-14. If no packets are shown the sender has not sent any weather packets the latest 10 day(s).
| Time | Temp. | Humidity | Pressure | Rain* | Wind** | Luminosity | Snow |
|---|---|---|---|---|---|---|---|
| 1777551939 | 17.22° C | 93% | 1008.5 hPa | 0 mm | - | 132 W/m² | - |
| 1777551636 | 17.22° C | 94% | 1008.6 hPa | 0 mm | - | 101 W/m² | - |
| 1777551334 | 17.22° C | 94% | 1008.6 hPa | 0 mm | - | 62 W/m² | - |
| 1777551030 | 17.22° C | 95% | 1008.6 hPa | 0 mm | - | 83 W/m² | - |
| 1777550727 | 17.22° C | 95% | 1008.7 hPa | 0 mm | - | 68 W/m² | - |
| 1777550423 | 17.22° C | 95% | 1008.7 hPa | 0 mm | - | 55 W/m² | - |
| 1777550120 | 17.22° C | 96% | 1008.7 hPa | 0 mm | - | 56 W/m² | - |
| 1777549816 | 17.22° C | 96% | 1008.5 hPa | 0 mm | - | 50 W/m² | - |
| 1777549512 | 17.22° C | 96% | 1008.7 hPa | 0 mm | - | 81 W/m² | - |
| 1777549209 | 17.22° C | 96% | 1008.9 hPa | 0 mm | - | 62 W/m² | - |
| 1777548906 | 16.67° C | 96% | 1008.6 hPa | 0 mm | - | 50 W/m² | - |
| 1777548602 | 16.67° C | 96% | 1008.4 hPa | 0 mm | - | 49 W/m² | - |
| 1777548299 | 16.67° C | 96% | 1008.3 hPa | 0 mm | - | 56 W/m² | - |
| 1777547996 | 16.67° C | 96% | 1008 hPa | 0 mm | - | 44 W/m² | - |
| 1777547691 | 16.67° C | 96% | 1008 hPa | 0 mm | - | 49 W/m² | - |
| 1777547388 | 16.67° C | 96% | 1007.6 hPa | 0 mm | - | 30 W/m² | - |
| 1777547086 | 16.67° C | 96% | 1007.7 hPa | 0 mm | - | 27 W/m² | - |
| 1777546783 | 16.67° C | 96% | 1007.6 hPa | 0 mm | - | 29 W/m² | - |
| 1777546480 | 16.67° C | 96% | 1007.7 hPa | 0 mm | - | 32 W/m² | - |
| 1777546177 | 16.67° C | 96% | 1007.5 hPa | 0 mm | - | 19 W/m² | - |
| 1777545873 | 16.67° C | 96% | 1007.5 hPa | 0 mm | - | 19 W/m² | - |
| 1777545570 | 16.67° C | 96% | 1007.7 hPa | 0 mm | - | 20 W/m² | - |
| 1777545267 | 16.67° C | 96% | 1007.7 hPa | 0 mm | - | 15 W/m² | - |
| 1777544964 | 16.67° C | 96% | 1007.5 hPa | 0 mm | - | 8 W/m² | - |
| 1777544661 | 16.67° C | 96% | 1007.4 hPa | 0 mm | - | 5 W/m² | - |
* Rain latest hour (hover to see other rain measurements)
** Current wind speed in m/s (hover to see current wind gust speed)